KLM82T SEQM-SEGU

Flight info

Callsign KLM82T
Flight time 0h 31m
Altitude 22000
Route TEMOX3B TEMOX TEMOX2
Aircraft B77W/H-SDE1E2E3FGHIJ2J3J4J5M1RWXY/LB1D1

Departure

Time 2026-04-22 17:34
Airport Mariscal Sucre International Airport (SEQM)

Arrival

Time 2026-04-22 18:05
Airport José Joaquín de Olmedo International Airport (SEGU)
Time Latitude Longitude Altitude Speed Heading
2026-04-22 17:06 -0.12549 -78.35905 7846 ft 0 kts 267°
2026-04-22 17:22 -0.12549 -78.35897 7830 ft 2 kts 267°
2026-04-22 17:22 -0.12548 -78.35885 7833 ft 2 kts 267°
2026-04-22 17:22 -0.12547 -78.35862 7833 ft 2 kts 265°
2026-04-22 17:23 -0.12545 -78.35850 7836 ft 2 kts 242°
2026-04-22 17:23 -0.12529 -78.35837 7836 ft 0 kts 174°
2026-04-22 17:26 -0.12568 -78.35835 7838 ft 12 kts 177°
2026-04-22 17:26 -0.12646 -78.35831 7846 ft 11 kts 177°
2026-04-22 17:26 -0.12701 -78.35790 7841 ft 11 kts 102°
2026-04-22 17:27 -0.12697 -78.35739 7841 ft 11 kts 85°
2026-04-22 17:27 -0.12693 -78.35640 7848 ft 11 kts 97°
2026-04-22 17:27 -0.12751 -78.35600 7850 ft 11 kts 174°
2026-04-22 17:27 -0.12827 -78.35597 7851 ft 11 kts 177°
2026-04-22 17:28 -0.12902 -78.35593 7853 ft 11 kts 177°
2026-04-22 17:28 -0.12978 -78.35590 7855 ft 11 kts 178°
2026-04-22 17:28 -0.13055 -78.35587 7858 ft 13 kts 178°
2026-04-22 17:28 -0.13157 -78.35583 7866 ft 15 kts 177°
2026-04-22 17:29 -0.13260 -78.35579 7871 ft 15 kts 178°
2026-04-22 17:29 -0.13363 -78.35575 7875 ft 15 kts 177°
2026-04-22 17:29 -0.13466 -78.35570 7880 ft 15 kts 177°
2026-04-22 17:29 -0.13597 -78.35564 7890 ft 20 kts 178°
2026-04-22 17:30 -0.13733 -78.35560 7897 ft 20 kts 178°
2026-04-22 17:30 -0.13869 -78.35554 7913 ft 20 kts 177°
2026-04-22 17:30 -0.14005 -78.35547 7912 ft 20 kts 177°
2026-04-22 17:30 -0.14128 -78.35542 7921 ft 16 kts 178°
2026-04-22 17:31 -0.14195 -78.35538 7921 ft 4 kts 172°
2026-04-22 17:31 -0.14212 -78.35532 7921 ft 0 kts 155°
2026-04-22 17:31 -0.14219 -78.35528 7926 ft 2 kts 150°
2026-04-22 17:32 -0.14245 -78.35501 7925 ft 9 kts 122°
2026-04-22 17:32 -0.14253 -78.35442 7921 ft 9 kts 89°
2026-04-22 17:32 -0.14240 -78.35385 7925 ft 9 kts 51°
2026-04-22 17:32 -0.14178 -78.35371 7921 ft 10 kts 358°
2026-04-22 17:33 -0.14128 -78.35373 7928 ft 13 kts 358°
2026-04-22 17:33 -0.13781 -78.35387 7906 ft 75 kts 358°
2026-04-22 17:33 -0.13044 -78.35418 7880 ft 136 kts 358°
2026-04-22 17:33 -0.11921 -78.35465 7822 ft 184 kts 357°
2026-04-22 17:34 -0.10555 -78.35525 8037 ft 198 kts 358°
2026-04-22 17:34 -0.09219 -78.35576 8868 ft 190 kts 356°
2026-04-22 17:34 -0.07863 -78.35628 9238 ft 200 kts 355°
2026-04-22 17:34 -0.06446 -78.35701 9771 ft 210 kts 356°
2026-04-22 17:35 -0.04891 -78.35751 10022 ft 239 kts 356°
2026-04-22 17:35 -0.03120 -78.35810 10215 ft 269 kts 357°
2026-04-22 17:35 -0.01244 -78.35876 10674 ft 281 kts 355°
2026-04-22 17:35 0.00675 -78.36404 11000 ft 295 kts 326°
2026-04-22 17:36 0.02119 -78.37954 11244 ft 320 kts 296°
2026-04-22 17:36 0.02678 -78.40184 11471 ft 348 kts 271°
2026-04-22 17:36 0.02463 -78.42643 11873 ft 360 kts 259°
2026-04-22 17:36 0.01710 -78.45055 12671 ft 368 kts 248°
2026-04-22 17:37 0.00686 -78.47395 13788 ft 369 kts 246°
2026-04-22 17:37 -0.00369 -78.49741 14804 ft 370 kts 247°
2026-04-22 17:37 -0.01380 -78.52115 15792 ft 373 kts 248°
2026-04-22 17:37 -0.02356 -78.54542 16651 ft 380 kts 248°
2026-04-22 17:38 -0.03316 -78.56989 17460 ft 387 kts 249°
2026-04-22 17:38 -0.04382 -78.59470 18132 ft 393 kts 241°
2026-04-22 17:38 -0.06112 -78.61598 18748 ft 398 kts 224°
2026-04-22 17:38 -0.08154 -78.63521 19346 ft 407 kts 224°
2026-04-22 17:39 -0.10211 -78.65483 20115 ft 410 kts 224°
2026-04-22 17:39 -0.12273 -78.67469 20842 ft 413 kts 224°
2026-04-22 17:39 -0.16462 -78.71544 22174 ft 425 kts 224°
2026-04-22 17:40 -0.18579 -78.73615 22994 ft 427 kts 224°
2026-04-22 17:40 -0.20700 -78.75692 23835 ft 428 kts 224°
2026-04-22 17:40 -0.22807 -78.77756 24245 ft 430 kts 224°
2026-04-22 17:40 -0.24941 -78.79846 24274 ft 431 kts 224°
2026-04-22 17:41 -0.27079 -78.81940 24277 ft 429 kts 224°
2026-04-22 17:41 -0.29208 -78.84026 24276 ft 428 kts 224°
2026-04-22 17:41 -0.31336 -78.86110 24272 ft 428 kts 224°
2026-04-22 17:41 -0.33462 -78.88192 24267 ft 428 kts 224°
2026-04-22 17:42 -0.35591 -78.90278 24259 ft 429 kts 224°
2026-04-22 17:42 -0.37721 -78.92364 24253 ft 429 kts 224°
2026-04-22 17:42 -0.39126 -78.93740 24250 ft 429 kts 224°
2026-04-22 17:42 -0.41948 -78.96504 24243 ft 429 kts 224°
2026-04-22 17:43 -0.44080 -78.98593 24237 ft 429 kts 224°
2026-04-22 17:43 -0.46212 -79.00682 24236 ft 429 kts 224°
2026-04-22 17:43 -0.48342 -79.02769 24227 ft 429 kts 224°
2026-04-22 17:43 -0.50475 -79.04858 24220 ft 429 kts 224°
2026-04-22 17:44 -0.52605 -79.06946 24214 ft 429 kts 224°
2026-04-22 17:44 -0.54737 -79.09034 24206 ft 429 kts 224°
2026-04-22 17:44 -0.56842 -79.11096 24199 ft 429 kts 224°
2026-04-22 17:44 -0.59070 -79.13067 24182 ft 428 kts 213°
2026-04-22 17:45 -0.61688 -79.14431 24203 ft 423 kts 204°
2026-04-22 17:45 -0.64377 -79.15633 24188 ft 425 kts 203°
2026-04-22 17:45 -0.67086 -79.16831 24186 ft 427 kts 203°
2026-04-22 17:45 -0.69800 -79.18043 24184 ft 428 kts 204°
2026-04-22 17:46 -0.72515 -79.19272 24177 ft 430 kts 204°
2026-04-22 17:46 -0.75240 -79.20520 24174 ft 431 kts 204°
2026-04-22 17:46 -0.77965 -79.21779 24167 ft 432 kts 204°
2026-04-22 17:46 -0.80649 -79.23024 24153 ft 427 kts 204°
2026-04-22 17:47 -0.83307 -79.24261 24105 ft 416 kts 204°
2026-04-22 17:47 -0.85920 -79.25477 23711 ft 414 kts 204°
2026-04-22 17:47 -0.88529 -79.26691 23198 ft 411 kts 205°
2026-04-22 17:47 -0.89669 -79.27221 22995 ft 410 kts 205°
2026-04-22 17:48 -0.91409 -79.28030 22697 ft 428 kts 205°
2026-04-22 17:48 -0.95259 -79.29820 22030 ft 483 kts 205°
2026-04-22 17:48 -0.98387 -79.31274 21895 ft 502 kts 205°
2026-04-22 17:48 -1.01420 -79.32685 21992 ft 466 kts 205°
2026-04-22 17:49 -1.04291 -79.34019 21667 ft 455 kts 205°
2026-04-22 17:49 -1.07105 -79.35327 21404 ft 431 kts 205°
2026-04-22 17:49 -1.09773 -79.36568 21308 ft 416 kts 205°
2026-04-22 17:49 -1.12352 -79.37767 21166 ft 402 kts 205°
2026-04-22 17:50 -1.14852 -79.38929 21023 ft 390 kts 205°
2026-04-22 17:50 -1.17281 -79.40059 20794 ft 381 kts 205°
2026-04-22 17:50 -1.19640 -79.41156 20284 ft 371 kts 205°
2026-04-22 17:50 -1.21977 -79.42243 19558 ft 369 kts 206°
2026-04-22 17:51 -1.24269 -79.43309 18830 ft 367 kts 206°
2026-04-22 17:51 -1.26573 -79.44381 18123 ft 364 kts 206°
2026-04-22 17:51 -1.28853 -79.45441 17396 ft 360 kts 206°
2026-04-22 17:51 -1.30384 -79.46153 16927 ft 357 kts 206°
2026-04-22 17:52 -1.33355 -79.47535 15991 ft 354 kts 206°
2026-04-22 17:52 -1.35578 -79.48570 15315 ft 351 kts 206°
2026-04-22 17:52 -1.37777 -79.49593 14675 ft 348 kts 206°
2026-04-22 17:52 -1.39962 -79.50609 14048 ft 346 kts 206°
2026-04-22 17:53 -1.42137 -79.51621 13381 ft 343 kts 206°
2026-04-22 17:53 -1.44292 -79.52624 12746 ft 340 kts 206°
2026-04-22 17:53 -1.46397 -79.53603 12141 ft 337 kts 206°
2026-04-22 17:53 -1.48498 -79.54581 11618 ft 326 kts 205°
2026-04-22 17:54 -1.50514 -79.55518 11221 ft 316 kts 205°
2026-04-22 17:54 -1.52507 -79.56445 10831 ft 316 kts 205°
2026-04-22 17:54 -1.54499 -79.57371 10541 ft 313 kts 205°
2026-04-22 17:54 -1.56443 -79.58274 10379 ft 305 kts 205°
2026-04-22 17:55 -1.57703 -79.58860 10288 ft 299 kts 205°
2026-04-22 17:55 -1.60178 -79.60010 10101 ft 288 kts 205°
2026-04-22 17:55 -1.61968 -79.60842 9941 ft 281 kts 205°
2026-04-22 17:55 -1.63720 -79.61657 9612 ft 281 kts 205°
2026-04-22 17:56 -1.65487 -79.62478 9289 ft 280 kts 205°
2026-04-22 17:56 -1.67251 -79.63298 8957 ft 279 kts 205°
2026-04-22 17:56 -1.69010 -79.64116 8646 ft 279 kts 205°
2026-04-22 17:56 -1.70176 -79.64658 8431 ft 278 kts 205°
2026-04-22 17:57 -1.72524 -79.65750 8012 ft 278 kts 205°
2026-04-22 17:57 -1.74272 -79.66563 7699 ft 278 kts 205°
2026-04-22 17:57 -1.75438 -79.67105 7475 ft 278 kts 205°
2026-04-22 17:57 -1.77760 -79.68185 7059 ft 278 kts 205°
2026-04-22 17:58 -1.79510 -79.68999 6731 ft 278 kts 205°
2026-04-22 17:58 -1.81270 -79.69818 6408 ft 279 kts 205°
2026-04-22 17:58 -1.83031 -79.70637 6069 ft 279 kts 205°
2026-04-22 17:58 -1.84772 -79.71446 5732 ft 279 kts 205°
2026-04-22 17:59 -1.86551 -79.72274 5397 ft 279 kts 205°
2026-04-22 17:59 -1.87710 -79.72813 5176 ft 274 kts 205°
2026-04-22 17:59 -1.89425 -79.73611 4863 ft 272 kts 205°
2026-04-22 17:59 -1.91140 -79.74408 4541 ft 271 kts 205°
2026-04-22 18:00 -1.92840 -79.75199 4314 ft 267 kts 205°
2026-04-22 18:00 -1.94987 -79.76365 3966 ft 264 kts 211°
2026-04-22 18:00 -1.96566 -79.77309 3654 ft 265 kts 211°
2026-04-22 18:00 -1.97620 -79.77937 3422 ft 256 kts 211°
2026-04-22 18:01 -1.99080 -79.78798 3128 ft 238 kts 210°
2026-04-22 18:01 -2.00452 -79.79602 2868 ft 221 kts 210°
2026-04-22 18:01 -2.01751 -79.80353 2681 ft 212 kts 208°
2026-04-22 18:01 -2.03050 -79.81058 2621 ft 212 kts 209°
2026-04-22 18:02 -2.04356 -79.81797 2342 ft 217 kts 210°
2026-04-22 18:02 -2.05622 -79.82526 2064 ft 200 kts 210°
2026-04-22 18:02 -2.06759 -79.83184 1806 ft 180 kts 210°
2026-04-22 18:02 -2.08145 -79.83982 1540 ft 167 kts 210°
2026-04-22 18:03 -2.08793 -79.84356 1377 ft 157 kts 210°
2026-04-22 18:03 -2.09708 -79.84884 1232 ft 151 kts 210°
2026-04-22 18:03 -2.10628 -79.85415 1015 ft 152 kts 210°
2026-04-22 18:03 -2.11543 -79.85942 826 ft 152 kts 209°
2026-04-22 18:04 -2.12458 -79.86470 605 ft 152 kts 209°
2026-04-22 18:04 -2.13375 -79.86986 405 ft 150 kts 210°
2026-04-22 18:04 -2.14281 -79.87518 213 ft 152 kts 210°
2026-04-22 18:04 -2.15190 -79.88046 46 ft 151 kts 209°
2026-04-22 18:05 -2.16016 -79.88523 32 ft 111 kts 210°
2026-04-22 18:05 -2.16478 -79.88791 33 ft 45 kts 210°
2026-04-22 18:05 -2.16620 -79.88872 32 ft 23 kts 210°
2026-04-22 18:05 -2.16710 -79.88935 32 ft 14 kts 242°
2026-04-22 18:06 -2.16684 -79.89001 33 ft 9 kts 346°
2026-04-22 18:06 -2.16625 -79.88984 33 ft 9 kts 27°
2026-04-22 18:06 -2.16567 -79.88951 33 ft 10 kts 30°
2026-04-22 18:06 -2.16509 -79.88917 33 ft 10 kts 30°
2026-04-22 18:07 -2.16450 -79.88883 33 ft 10 kts 30°
2026-04-22 18:07 -2.16390 -79.88849 33 ft 10 kts 30°
2026-04-22 18:07 -2.16332 -79.88816 33 ft 10 kts 30°
2026-04-22 18:07 -2.16272 -79.88780 33 ft 10 kts 31°
2026-04-22 18:08 -2.16209 -79.88744 33 ft 10 kts 30°
2026-04-22 18:08 -2.16146 -79.88708 34 ft 10 kts 29°
2026-04-22 18:08 -2.16083 -79.88672 34 ft 10 kts 30°
2026-04-22 18:08 -2.16020 -79.88636 33 ft 10 kts 30°
2026-04-22 18:09 -2.15957 -79.88600 33 ft 10 kts 30°
2026-04-22 18:09 -2.15894 -79.88563 33 ft 10 kts 30°
2026-04-22 18:09 -2.15831 -79.88527 33 ft 10 kts 30°
2026-04-22 18:09 -2.15769 -79.88492 33 ft 11 kts 30°
2026-04-22 18:10 -2.15677 -79.88439 33 ft 25 kts 30°
2026-04-22 18:10 -2.15528 -79.88351 33 ft 24 kts 31°
2026-04-22 18:10 -2.15419 -79.88288 33 ft 17 kts 29°
2026-04-22 18:10 -2.15323 -79.88234 32 ft 15 kts 27°
2026-04-22 18:11 -2.15237 -79.88267 33 ft 15 kts 298°
2026-04-22 18:11 -2.15186 -79.88358 33 ft 15 kts 300°
2026-04-22 18:11 -2.15127 -79.88392 34 ft 7 kts 346°
2026-04-22 18:11 -2.15098 -79.88427 33 ft 7 kts 300°
2026-04-22 18:12 -2.15090 -79.88442 33 ft 0 kts 300°